FW3211 Weather Reports


time (UTC)temp
F
wind
direction
speed
knots
gust
knots
rain 1hr
in
rain 24hr
in
rain mn
in
humidity
%
barometer
mb
20260507002305 54 295 0.9 1.7 0.00 1.13 0.00 80 1013.4
20260507001803 54 295 0.9 1.7 0.00 1.13 0.00 80 1013.3
20260507001302 54 295 0.9 2.6 0.00 1.13 0.00 80 1013.4
20260507000802 54 295 0.9 2.6 0.00 1.13 0.00 80 1013.4
20260507000302 54 300 0.9 2.6 0.00 1.13 0.00 80 1013.4
20260506235802 54 300 0.9 2.6 0.00 1.13 0.00 80 1013.4
20260506235306 54 301 0.9 2.6 0.00 1.13 0.00 80 1013.5
20260506234802 54 301 0.9 2.6 0.00 1.13 0.00 80 1013.5
20260506234303 54 237 0.9 3.5 0.00 1.13 0.00 80 1013.5
20260506234051 54 294 1.7 3.5 0.00 1.13 0.00 80 1013.6
20260506233308 54 295 1.7 2.6 0.00 1.13 0.00 80 1013.6
20260506232802 54 283 0.9 2.6 0.00 1.13 0.00 80 1013.7
20260506232306 55 315 0.9 2.6 0.00 1.13 0.00 80 1013.7
20260506232100 55 315 0.9 2.6 0.00 1.13 0.00 80 1013.6
20260506231253 55 260 1.7 5.2 0.00 1.13 0.00 80 1013.6
20260506230751 55 245 1.7 5.2 0.00 1.13 0.00 80 1013.6
20260506230249 55 236 1.7 5.2 0.00 1.13 0.00 80 1013.5
20260506225749 55 224 1.7 4.3 0.00 1.13 0.00 80 1013.5
20260506225249 55 183 0.9 3.5 0.00 1.13 0.00 80 1013.6
20260506224749 55 274 0.9 2.6 0.00 1.13 0.00 80 1013.6
20260506224249 55 225 0.9 3.5 0.00 1.13 0.00 80 1013.5
20260506224035 55 227 0.9 3.5 0.00 1.13 0.00 80 1013.5
20260506223248 55 239 1.7 7.8 0.00 1.13 0.00 80 1013.4
20260506222746 55 291 1.7 7.8 0.00 1.13 0.00 80 1013.4
20260506222250 55 232 1.7 5.2 0.00 1.13 0.00 79 1013.4
20260506222044 55 248 1.7 5.2 0.00 1.13 0.00 80 1013.4
20260506221527 55 207 0.9 5.2 0.00 1.13 0.00 80 1013.4
20260506221031 55 270 0.9 4.3 0.00 1.13 0.00 80 1013.4
20260506220242 55 233 0.9 3.5 0.00 1.13 0.00 80 1013.5
20260506215739 55 305 1.7 3.5 0.00 1.13 1.13 80 1013.5
20260506215242 55 298 1.7 3.5 0.00 1.13 1.13 80 1013.4
20260506214736 55 258 0.9 4.3 0.00 1.13 1.13 80 1013.5
20260506214236 55 207 0.9 5.2 0.00 1.13 1.13 80 1013.5
20260506213737 55 280 0.9 5.2 0.00 1.13 1.13 80 1013.5
20260506213239 55 287 0.9 3.5 0.00 1.13 1.13 80 1013.5
20260506212736 55 280 0.9 2.6 0.00 1.13 1.13 80 1013.5
20260506212239 55 281 0.9 3.5 0.00 1.13 1.13 80 1013.4
20260506211737 55 209 0.9 3.5 0.00 1.13 1.13 80 1013.5
20260506211236 55 258 0.9 2.6 0.00 1.13 1.13 80 1013.5
20260506210733 55 258 0.9 2.6 0.00 1.13 1.13 80 1013.5
20260506210233 55 146 0.9 2.6 0.00 1.13 1.13 80 1013.5
20260506205731 55 243 0.9 2.6 0.00 1.13 1.13 80 1013.5
20260506205232 55 244 0.9 2.6 0.00 1.13 1.13 80 1013.5
20260506204725 55 222 0.9 2.6 0.00 1.13 1.13 80 1013.5
20260506204222 55 147 0.9 1.7 0.00 1.13 1.13 80 1013.5
20260506203712 55 147 0.9 1.7 0.00 1.13 1.13 80 1013.4
20260506203218 55 280 0.9 3.5 0.00 1.13 1.13 80 1013.4
20260506203058 55 284 0.9 3.5 0.00 1.13 1.13 80 1013.4
20260506202801 55 280 0.9 3.5 0.00 1.13 1.13 80 1013.4
20260506201712 55 224 0.9 2.6 0.00 1.13 1.13 80 1013.3
20260506201206 55 224 0.9 2.6 0.00 1.13 1.13 80 1013.3
20260506200707 55 224 0.0 2.6 0.00 1.13 1.13 80 1013.2
20260506200206 55 224 0.9 4.3 0.00 1.13 1.13 80 1013.1
20260506195705 56 277 0.9 4.3 0.00 1.13 1.13 80 1013.1
20260506195209 56 111 0.0 1.7 0.00 1.13 1.13 80 1013.1
20260506194705 56 118 0.0 0.9 0.00 1.13 1.13 80 1013.0
20260506194259 56 118 0.0 0.9 0.00 1.13 1.13 80 1012.8
20260506194239 56 118 0.0 0.9 0.00 1.13 1.13 80 1012.9
20260506193208 56 118 0.0 1.7 0.00 1.13 1.13 80 1012.7
20260506193006 56 118 0.0 1.7 0.00 1.13 1.13 80 1012.6
20260506192155 56 118 0.0 1.7 0.00 1.13 1.13 80 1012.6
20260506191652 56 118 0.0 1.7 0.00 1.13 1.13 80 1012.5
20260506191156 56 118 0.9 3.5 0.00 1.13 1.13 80 1012.4
20260506190655 56 117 1.7 5.2 0.00 1.13 1.13 79 1012.4
20260506190151 56 170 1.7 5.2 0.00 1.13 1.13 79 1012.3
20260506185654 56 162 1.7 7.0 0.00 1.13 1.13 79 1012.2
20260506185152 56 199 2.6 7.0 0.00 1.13 1.13 79 1012.1
20260506184652 56 165 1.7 6.1 0.00 1.13 1.13 80 1012.1
20260506184152 56 129 1.7 6.1 0.00 1.13 1.13 80 1012.1
20260506183653 56 184 1.7 5.2 0.00 1.13 1.13 79 1011.9
20260506183151 56 199 1.7 3.5 0.00 1.13 1.13 79 1012.0
20260506182652 56 138 1.7 4.3 0.00 1.13 1.13 79 1011.9
20260506182153 56 215 1.7 4.3 0.00 1.13 1.13 79 1011.9
20260506181651 56 221 1.7 5.2 0.00 1.13 1.13 79 1011.9
20260506181145 56 271 1.7 5.2 0.00 1.13 1.13 79 1011.7
20260506180638 56 208 2.6 7.8 0.00 1.13 1.13 79 1011.5
20260506180135 56 142 2.6 7.8 0.00 1.13 1.13 79 1011.5
20260506175921 56 165 1.7 6.1 0.00 1.13 1.13 79 1011.5
20260506175135 56 114 1.7 6.1 0.00 1.13 1.13 78 1011.4
20260506174633 56 59 2.6 7.0 0.00 1.13 1.13 78 1011.4
20260506174132 56 199 2.6 7.0 0.00 1.13 1.13 78 1011.4
20260506173633 56 141 2.6 9.6 0.00 1.13 1.13 78 1011.3
20260506173132 56 79 2.6 9.6 0.00 1.13 1.13 78 1011.3
20260506172632 57 168 2.6 7.8 0.00 1.13 1.13 78 1011.2
20260506172133 57 154 2.6 7.8 0.00 1.13 1.13 78 1011.3
20260506171637 57 175 2.6 7.0 0.00 1.13 1.13 78 1011.2
20260506171133 57 187 3.5 7.8 0.00 1.13 1.13 78 1011.2
20260506170647 57 102 2.6 7.8 0.00 1.13 1.13 77 1011.3
20260506170134 57 183 1.7 4.3 0.00 1.13 1.13 77 1011.2
20260506165635 57 217 2.6 8.7 0.00 1.13 1.13 78 1011.2
20260506165135 57 97 2.6 8.7 0.00 1.13 1.13 77 1011.2
20260506164634 57 168 2.6 7.0 0.00 1.13 1.13 77 1011.2
20260506164132 58 110 1.7 7.0 0.00 1.13 1.13 77 1011.2
20260506163922 57 185 2.6 7.0 0.00 1.13 1.13 77 1011.2
20260506163133 57 192 3.5 10.4 0.00 1.13 1.13 77 1011.2
20260506162632 58 185 2.6 10.4 0.00 1.13 1.13 77 1011.4
20260506162332 58 116 2.6 7.0 0.00 1.13 1.13 78 1011.2
20260506162246 58 209 2.6 7.8 0.00 1.13 1.13 77 1011.3
20260506161146 58 176 1.7 6.1 0.00 1.13 1.13 77 1011.3
20260506160643 58 120 1.7 5.2 0.00 1.13 1.13 78 1011.2
20260506160555 58 195 3.5 9.6 0.00 1.13 1.13 77 1011.2
20260506160542 58 144 2.6 7.8 0.00 1.13 1.13 78 1011.2
20260506155134 58 68 3.5 9.6 0.00 1.13 1.13 77 1011.1
20260506154638 58 162 4.3 9.6 0.00 1.13 1.13 77 1011.1
20260506154128 58 39 3.5 9.6 0.00 1.13 1.13 77 1011.1
20260506153623 58 145 2.6 9.6 0.00 1.13 1.13 76 1011.2
20260506153115 58 142 3.5 8.7 0.00 1.13 1.13 77 1011.1
20260506152605 58 187 3.5 8.7 0.00 1.13 1.13 76 1011.1
20260506152106 58 65 2.6 6.1 0.00 1.13 1.13 77 1011.1
20260506151610 58 118 1.7 5.2 0.00 1.13 1.13 77 1011.0
20260506151108 58 135 2.6 7.8 0.00 1.13 1.13 77 1011.1
20260506150607 58 218 3.5 8.7 0.00 1.13 1.13 76 1011.0
20260506150109 59 99 3.5 9.6 0.00 1.13 1.13 75 1011.1
20260506145606 59 205 2.6 9.6 0.00 1.13 1.13 75 1011.0
20260506145349 60 95 2.6 7.8 0.00 1.13 1.13 75 1011.1
20260506144605 60 212 2.6 7.8 0.00 1.13 1.13 75 1011.0
20260506144105 60 168 2.6 7.8 0.00 1.13 1.13 75 1011.0
20260506143605 60 89 2.6 7.0 0.00 1.13 1.13 75 1011.0
20260506143105 60 81 2.6 7.0 0.00 1.13 1.13 75 1011.0
20260506142841 60 137 3.5 8.7 0.00 1.13 1.13 75 1011.0
20260506142105 60 138 3.5 8.7 0.00 1.13 1.13 75 1011.0
20260506141604 60 199 3.5 7.8 0.00 1.13 1.13 75 1011.0
20260506141107 60 131 4.3 9.6 0.00 1.13 1.13 76 1010.9
20260506140603 59 83 4.3 10.4 0.00 1.13 1.13 76 1011.0
20260506140106 59 173 4.3 10.4 0.00 1.13 1.13 76 1011.0
20260506135604 60 154 3.5 9.6 0.00 1.13 1.13 77 1011.0
20260506135343 60 120 4.3 9.6 0.00 1.13 1.13 77 1011.0
20260506134609 60 107 4.3 11.3 0.00 1.13 1.13 77 1011.1
20260506134106 60 100 4.3 11.3 0.00 1.13 1.13 77 1011.1
20260506133901 60 141 3.5 7.8 0.00 1.13 1.13 78 1011.2
20260506133110 59 170 3.5 9.6 0.00 1.13 1.13 79 1011.2
20260506132609 59 156 3.5 9.6 0.00 1.13 1.13 78 1011.1
20260506132103 59 140 3.5 7.8 0.00 1.13 1.13 79 1011.2
20260506131603 58 135 3.5 11.3 0.00 1.13 1.13 79 1011.2
20260506131104 59 183 3.5 11.3 0.00 1.13 1.13 79 1011.1
20260506130607 59 156 2.6 7.0 0.00 1.13 1.13 79 1011.2
20260506130109 59 147 2.6 7.8 0.00 1.13 1.13 79 1011.2
20260506125604 59 131 3.5 8.7 0.00 1.13 1.13 79 1011.2
20260506125144 60 180 2.6 8.7 0.00 1.13 1.13 78 1011.2
20260506125124 59 90 2.6 8.7 0.00 1.13 1.13 78 1011.1
20260506124107 60 153 2.6 8.7 0.00 1.13 1.13 78 1011.2
20260506123604 60 119 2.6 8.7 0.00 1.13 1.13 78 1011.1
20260506123104 60 132 4.3 11.3 0.00 1.13 1.13 77 1011.2
20260506122609 60 164 4.3 11.3 0.00 1.13 1.13 78 1011.1
20260506122106 59 123 3.5 9.6 0.00 1.13 1.13 78 1011.2
20260506121605 59 189 3.5 8.7 0.00 1.13 1.13 79 1011.1
20260506121105 59 182 3.5 8.7 0.00 1.13 1.13 78 1011.0
20260506120606 59 87 2.6 7.8 0.00 1.13 1.13 78 1011.1
20260506120111 59 179 2.6 11.3 0.00 1.13 1.13 79 1011.1
20260506115608 59 78 3.5 11.3 0.00 1.13 1.13 78 1011.0
20260506115105 59 195 2.6 8.7 0.00 1.13 1.13 79 1011.1
20260506114603 60 193 2.6 8.7 0.00 1.13 1.13 79 1011.1
20260506114105 60 204 3.5 10.4 0.00 1.13 1.13 80 1011.1
20260506113607 59 165 3.5 10.4 0.00 1.13 1.13 80 1011.0
20260506113105 59 39 4.3 9.6 0.00 1.13 1.13 80 1011.0
20260506112606 59 139 4.3 9.6 0.00 1.13 1.13 81 1011.1
20260506112103 58 156 4.3 13.0 0.00 1.13 1.13 81 1011.0
20260506111604 58 89 4.3 13.0 0.00 1.13 1.13 82 1011.0
20260506111103 57 114 4.3 9.6 0.00 1.13 1.13 82 1011.1
20260506110618 57 180 4.3 8.7 0.00 1.13 1.13 82 1011.1
20260506110106 57 124 3.5 8.7 0.00 1.13 1.13 82 1011.1
20260506105845 57 149 3.5 8.7 0.00 1.13 1.13 82 1011.1
20260506105059 57 135 3.5 8.7 0.00 1.13 1.13 82 1011.0
20260506104602 57 131 2.6 8.7 0.00 1.13 1.13 82 1011.0
20260506104342 57 106 1.7 7.0 0.00 1.13 1.13 82 1011.1
20260506103600 57 144 1.7 5.2 0.00 1.13 1.13 82 1011.0
20260506103103 57 276 0.9 2.6 0.00 1.13 1.13 82 1011.0
20260506102558 57 156 1.7 2.6 0.00 1.13 1.13 82 1011.0
20260506102057 57 78 0.9 2.6 0.00 1.13 1.13 82 1011.0
20260506101843 58 65 0.9 2.6 0.00 1.13 1.13 82 1010.9
20260506101057 58 34 0.9 4.3 0.00 1.13 1.13 82 1010.8
20260506100558 58 75 0.9 4.3 0.00 1.13 1.13 82 1010.8
20260506100348 58 64 0.9 2.6 0.00 1.13 1.13 82 1010.8
20260506095556 58 64 0.9 2.6 0.00 1.13 1.13 82 1010.7
20260506095056 58 64 0.9 2.6 0.00 1.13 1.13 82 1010.6
20260506094556 58 60 1.7 5.2 0.00 1.13 1.13 82 1010.5
20260506094057 58 78 1.7 7.0 0.00 1.13 1.13 82 1010.6
20260506093554 58 85 1.7 7.0 0.00 1.13 1.13 82 1010.4
20260506093057 58 75 1.7 7.0 0.00 1.13 1.13 82 1010.4
20260506092556 58 89 2.6 7.0 0.00 1.13 1.13 82 1010.2
20260506092339 58 101 3.5 9.6 0.00 1.13 1.13 82 1010.1
20260506091556 58 87 3.5 11.3 0.00 1.13 1.13 82 1010.1
20260506091328 58 118 6.1 20.0 0.00 1.13 1.13 82 1010.1
20260506090553 58 325 7.8 20.0 0.00 1.13 1.13 82 1009.8
20260506090325 58 105 7.0 17.4 0.00 1.13 1.13 82 1009.7
20260506085821 58 169 6.1 17.4 0.00 1.13 1.13 82 1009.7
20260506085323 58 109 6.1 17.4 0.00 1.13 1.13 82 1009.6
20260506084534 58 265 5.2 19.1 0.00 1.13 1.13 82 1009.4
20260506084035 58 164 3.5 19.1 0.00 1.13 1.13 82 1009.3
20260506083537 58 57 3.5 8.7 0.00 1.13 1.13 82 1009.3
20260506083318 58 146 3.5 10.4 0.00 1.13 1.13 82 1009.5
20260506082533 58 166 5.2 14.8 0.00 1.13 1.13 82 1009.3
20260506082038 58 266 7.8 16.5 0.00 1.13 1.13 82 1008.9
20260506081536 58 98 7.8 19.1 0.00 1.13 1.13 82 1008.8
20260506081034 58 152 6.1 19.1 0.00 1.13 1.13 82 1008.9
20260506080534 58 164 6.1 17.4 0.00 1.13 1.13 82 1009.6
20260506073249 58 185 3.5 9.6 0.00 1.13 1.13 82 1009.4
20260506072510 58 158 4.3 11.3 0.00 1.13 1.13 82 1009.4
20260506072008 58 195 5.2 12.2 0.00 1.13 1.13 82 1009.4
20260506071516 58 156 6.1 15.6 0.01 1.14 1.13 82 1009.3
20260506071006 58 161 7.0 15.6 0.06 1.14 1.13 82 1009.5
20260506070505 58 73 6.1 15.6 0.06 1.14 1.13 82 1009.1
20260506062505 57 145 4.3 13.0 0.06 1.21 1.13 82 1009.6
20260506062005 56 204 3.5 9.6 0.06 1.28 1.13 82 1009.6
20260506061505 56 85 3.5 9.6 0.06 1.32 1.12 82 1009.4
20260506061257 56 187 2.6 9.6 0.00 1.36 1.07 82 1009.6
20260506060504 55 172 1.7 5.2 0.00 1.46 1.07 82 1009.6
20260506050958 56 293 1.7 6.1 0.11 1.62 1.07 82 1009.6
20260506050738 56 262 1.7 7.0 0.11 1.65 1.07 82 1009.7
20260506044953 55 249 0.9 4.3 0.11 1.74 1.07 81 1009.9
20260506044454 55 155 0.0 1.7 0.11 1.76 1.07 81 1010.0
20260506043954 56 199 0.9 4.3 0.11 1.76 1.07 81 1009.8
20260506043453 56 226 2.6 9.6 0.11 1.78 1.07 82 1009.7
20260506043251 55 195 1.7 7.8 0.07 1.81 1.02 81 1010.1
20260506043209 56 178 2.6 9.6 0.10 1.80 1.06 82 1010.0
20260506041951 54 289 1.7 2.6 0.01 1.83 0.97 81 1009.8
20260506041449 54 287 1.7 3.5 0.00 1.90 0.96 81 1009.8
20260506040948 54 285 0.9 3.5 0.01 1.93 0.96 81 1010.1
20260506040451 55 320 0.0 2.6 0.01 1.94 0.96 81 1010.1
20260506035948 55 320 0.0 0.9 0.01 1.94 0.96 81 1010.1
20260506035727 55 320 0.9 1.7 0.02 1.95 0.96 81 1010.2
20260506034948 54 320 0.9 2.6 0.09 1.97 0.96 81 1010.3
20260506034445 54 320 0.9 2.6 0.24 2.01 0.96 80 1010.4
20260506033946 54 320 0.9 2.6 0.43 2.03 0.96 80 1010.3
20260506033444 54 320 1.7 3.5 0.53 2.06 0.96 80 1010.1
20260506033227 54 334 1.7 3.5 0.57 2.08 0.96 80 1010.1
20260506032441 54 354 1.7 3.5 0.59 2.09 0.96 80 1010.2
20260506031940 54 20 1.7 5.2 0.62 2.09 0.96 80 1010.3
20260506031437 54 21 0.9 5.2 0.64 2.09 0.95 80 1010.2
20260506031218 54 229 1.7 5.2 0.71 1.39 0.94 80 1010.1
20260506031212 54 110 1.7 5.2 0.81 1.39 0.87 80 1010.6
20260506031204 54 316 1.7 4.3 0.67 1.41 0.70 80 1010.5
20260506031155 54 302 1.7 3.5 0.48 1.43 0.52 80 1010.0
20260506031121 54 300 0.0 2.6 0.65 2.09 0.95 80 1010.4
20260506031019 54 29 0.9 3.5 0.69 2.09 0.95 80 1010.4
20260506030331 54 21 1.7 5.2 0.73 1.39 0.94 80 1010.3
20260506023831 54 14 1.7 3.5 0.39 1.45 0.43 79 1010.1
20260506022927 55 219 1.7 5.2 0.36 1.46 0.39 79 1009.9
20260506022715 55 354 1.7 7.0 0.35 1.48 0.36 79 1009.9
20260506021927 55 24 1.7 7.0 0.32 1.49 0.33 79 1010.2
20260506021426 55 354 0.9 2.6 0.30 1.50 0.31 78 1010.4
20260506020926 55 69 0.9 2.6 0.29 1.51 0.29 78 1010.3
20260506020427 55 173 0.0 1.7 0.27 1.52 0.27 78 1010.6
20260506020217 55 173 0.9 2.6 0.24 1.28 0.24 78 1010.3
20260506015523 56 308 0.0 0.9 0.06 1.30 0.06 78 1010.7
20260506015505 55 173 0.9 2.6 0.20 1.29 0.20 78 1010.5
20260506014426 56 308 0.9 1.7 0.06 1.31 0.06 78 1010.5
20260506013926 56 308 0.9 2.6 0.06 1.31 0.05 77 1010.5
20260506013426 56 308 0.9 2.6 0.05 1.31 0.05 77 1010.7
20260506013217 56 307 0.9 1.7 0.03 1.31 0.03 77 1011.0
20260506012422 56 307 0.9 1.7 0.02 1.31 0.02 77 1011.0
20260506011923 56 307 0.9 1.7 0.02 1.32 0.02 77 1011.1
20260506011800 56 307 0.9 2.6 0.01 1.34 0.01 76 1011.2
20260506011439 56 307 0.9 2.6 0.02 1.33 0.02 77 1011.1
20260506010422 56 302 0.9 1.7 0.00 1.35 0.00 76 1011.3
20260506005923 56 301 0.9 1.7 0.00 1.35 0.00 76 1011.3
20260506005420 56 301 0.9 1.7 0.00 1.35 0.00 76 1011.3
20260506005214 56 289 0.9 2.6 0.00 1.36 0.00 76 1011.4
20260506004421 56 289 0.9 3.5 0.00 1.36 0.00 76 1011.4
20260506003921 56 287 0.9 4.3 0.00 1.36 0.00 75 1011.5
20260506003420 56 298 0.9 4.3 0.00 1.36 0.00 75 1011.8